FW4800 Weather Reports


Display with metric or nautical units.
time (UTC)temp
F
wind
direction
speed
MPH
gust
MPH
rain 1hr
in
rain 24hr
in
rain mn
in
humidity
%
barometer
mb
20260906211513 89 116 4.0 11.0 0.00 0.00 0.00 44 1004.4
20260906211011 88 190 6.0 11.0 0.00 0.00 0.00 42 1004.5
20260906210511 88 107 5.0 12.0 0.00 0.00 0.00 46 1004.5
20260906205511 88 136 6.0 11.0 0.00 0.00 0.00 44 1004.5
20260906205009 87 86 6.0 11.0 0.00 0.00 0.00 44 1004.5
20260906204509 87 111 4.0 10.0 0.00 0.00 0.00 42 1004.5
20260906204007 87 122 6.0 10.0 0.00 0.00 0.00 46 1004.6
20260906203507 87 116 4.0 9.0 0.00 0.00 0.00 43 1004.7
20260906203007 87 93 5.0 9.0 0.00 0.00 0.00 42 1004.7
20260906202505 87 144 4.0 11.0 0.00 0.00 0.00 43 1004.7
20260906202005 87 103 2.0 9.0 0.00 0.00 0.00 46 1004.8
20260906201504 86 129 5.0 10.0 0.00 0.00 0.00 48 1004.8
20260906201002 86 65 5.0 10.0 0.00 0.00 0.00 46 1004.8
20260906200504 86 133 5.0 11.0 0.00 0.00 0.00 46 1004.8
20260906195501 86 93 8.0 11.0 0.00 0.00 0.00 47 1004.9
20260906195059 85 192 1.0 8.0 0.00 0.00 0.00 49 1005.0
20260906194611 85 115 3.0 8.0 0.00 0.00 0.00 47 1005.0
20260906194200 85 94 5.0 9.0 0.00 0.00 0.00 47 1005.0
20260906193558 85 105 5.0 14.0 0.00 0.00 0.00 46 1005.1
20260906193057 85 109 4.0 9.0 0.00 0.00 0.00 48 1005.1
20260906192555 84 51 4.0 10.0 0.00 0.00 0.00 48 1005.2
20260906192055 84 62 6.0 14.0 0.00 0.00 0.00 45 1005.3
20260906191554 84 127 8.0 14.0 0.00 0.00 0.00 48 1005.4
20260906191051 84 130 5.0 10.0 0.00 0.00 0.00 51 1005.5
20260906190550 83 107 2.0 11.0 0.00 0.00 0.00 53 1005.6
20260906185552 83 87 4.0 12.0 0.00 0.00 0.00 51 1005.8
20260906185051 83 114 8.0 12.0 0.00 0.00 0.00 52 1005.9
20260906184548 82 36 2.0 8.0 0.00 0.00 0.00 54 1006.2
20260906184047 82 171 3.0 8.0 0.00 0.00 0.00 54 1006.3
20260906183545 82 103 2.0 8.0 0.00 0.00 0.00 55 1006.2
20260906183054 81 138 2.0 8.0 0.00 0.00 0.00 55 1006.4
20260906182542 81 110 4.0 8.0 0.00 0.00 0.00 57 1006.5
20260906182042 81 170 2.0 7.0 0.00 0.00 0.00 57 1006.6
20260906181542 81 187 4.0 7.0 0.00 0.00 0.00 59 1006.7
20260906181040 80 302 1.0 5.0 0.00 0.00 0.00 60 1006.8
20260906180539 79 206 2.0 9.0 0.00 0.00 0.00 60 1006.9
20260906175538 79 108 3.0 9.0 0.00 0.00 0.00 57 1007.1
20260906175038 79 76 3.0 10.0 0.00 0.00 0.00 57 1007.2
20260906174536 79 100 6.0 9.0 0.00 0.00 0.00 58 1007.1
20260906174036 79 76 2.0 8.0 0.00 0.00 0.00 60 1007.2
20260906173533 79 113 4.0 9.0 0.00 0.00 0.00 59 1007.5
20260906173032 79 99 2.0 10.0 0.00 0.00 0.00 61 1007.5
20260906172533 78 167 2.0 10.0 0.00 0.00 0.00 61 1007.6
20260906172029 78 138 4.0 10.0 0.00 0.00 0.00 62 1007.8
20260906171528 78 98 5.0 10.0 0.00 0.00 0.00 63 1007.9
20260906171026 78 127 5.0 9.0 0.00 0.00 0.00 62 1008.0
20260906170525 77 184 3.0 5.0 0.00 0.00 0.00 65 1008.0
20260906165524 77 174 3.0 8.0 0.00 0.00 0.00 64 1008.0
20260906165022 77 69 3.0 8.0 0.00 0.00 0.00 64 1008.0
20260906164521 76 98 1.0 8.0 0.00 0.00 0.00 65 1008.0
20260906164020 76 110 1.0 8.0 0.00 0.00 0.00 65 1008.1
20260906163520 76 106 3.0 7.0 0.00 0.00 0.00 66 1008.0
20260906163019 75 134 3.0 8.0 0.00 0.00 0.00 66 1008.0
20260906162519 75 128 3.0 8.0 0.00 0.00 0.00 65 1008.0
20260906162018 75 113 4.0 6.0 0.00 0.00 0.00 65 1008.0
20260906161518 75 34 1.0 8.0 0.00 0.00 0.00 66 1008.0
20260906161019 75 76 1.0 8.0 0.00 0.00 0.00 67 1008.0
20260906160518 74 51 0.0 5.0 0.00 0.00 0.00 67 1008.1
20260906155521 74 44 2.0 7.0 0.00 0.00 0.00 67 1008.2
20260906155018 74 64 1.0 8.0 0.00 0.00 0.00 67 1008.3
20260906154518 74 73 1.0 5.0 0.00 0.00 0.00 70 1008.2
20260906154018 73 16 0.0 6.0 0.00 0.00 0.00 70 1008.2
20260906153518 72 90 3.0 6.0 0.00 0.00 0.00 71 1008.3
20260906153022 71 69 1.0 5.0 0.00 0.00 0.00 71 1008.4
20260906152517 71 84 1.0 7.0 0.00 0.00 0.00 70 1008.4
20260906152017 72 114 4.0 7.0 0.00 0.00 0.00 70 1008.4
20260906151517 71 82 1.0 6.0 0.00 0.00 0.00 72 1008.5
20260906151018 71 75 2.0 6.0 0.00 0.00 0.00 72 1008.6
20260906150517 71 355 2.0 5.0 0.00 0.00 0.00 73 1008.6
20260906145521 70 15 1.0 4.0 0.00 0.00 0.00 73 1008.7
20260906145023 69 36 1.0 4.0 0.00 0.00 0.00 75 1008.6
20260906144518 69 76 1.0 5.0 0.00 0.00 0.00 76 1008.6
20260906144015 68 60 2.0 4.0 0.00 0.00 0.00 78 1008.7
20260906143520 67 338 0.0 2.0 0.00 0.00 0.00 78 1008.7
20260906143018 66 330 0.0 3.0 0.00 0.00 0.00 78 1008.6
20260906142515 66 330 1.0 3.0 0.00 0.00 0.00 78 1008.7
20260906142015 66 330 1.0 5.0 0.00 0.00 0.00 78 1008.7
20260906141514 66 330 2.0 5.0 0.00 0.00 0.00 78 1008.7
20260906141014 65 288 2.0 4.0 0.00 0.00 0.00 79 1008.7
20260906140515 65 290 2.0 5.0 0.00 0.00 0.00 79 1008.7
20260906135515 64 304 2.0 5.0 0.00 0.00 0.00 81 1008.6
20260906135014 63 296 2.0 5.0 0.00 0.00 0.00 83 1008.6
20260906134515 63 307 2.0 5.0 0.00 0.00 0.00 85 1008.7
20260906134014 63 296 3.0 5.0 0.00 0.00 0.00 85 1008.7
20260906133513 63 344 1.0 3.0 0.00 0.00 0.00 86 1008.6
20260906133013 62 346 0.0 3.0 0.00 0.00 0.00 86 1008.5
20260906132514 62 346 1.0 3.0 0.00 0.00 0.00 86 1008.4
20260906132013 62 346 1.0 3.0 0.00 0.00 0.00 86 1008.4
20260906131513 62 346 0.0 3.0 0.00 0.00 0.00 86 1008.3
20260906131012 62 341 0.0 3.0 0.00 0.00 0.00 86 1008.4
20260906130512 61 335 0.0 3.0 0.00 0.00 0.00 86 1008.2
20260906125512 61 360 0.0 3.0 0.00 0.00 0.00 86 1008.4
20260906125012 61 360 1.0 3.0 0.00 0.00 0.00 86 1008.4
20260906124513 61 360 0.0 2.0 0.00 0.00 0.00 86 1008.2
20260906124014 61 360 1.0 3.0 0.00 0.00 0.00 85 1008.3
20260906123511 61 360 0.0 3.0 0.00 0.00 0.00 85 1008.3
20260906123014 61 360 1.0 3.0 0.00 0.00 0.00 85 1008.4
20260906122510 61 360 0.0 3.0 0.00 0.00 0.00 83 1008.5
20260906122014 61 360 1.0 3.0 0.00 0.00 0.00 84 1008.5
20260906121510 61 360 1.0 3.0 0.00 0.00 0.00 84 1008.3
20260906121008 62 360 1.0 3.0 0.00 0.00 0.00 84 1008.3
20260906120510 62 360 1.0 2.0 0.00 0.00 0.00 83 1008.4
20260906120006 62 360 0.0 2.0 0.00 0.00 0.00 83 1008.4
20260906115507 62 360 0.0 2.0 0.00 0.00 0.00 83 1008.3
20260906115005 63 360 0.0 2.0 0.00 0.00 0.00 82 1008.3
20260906114504 63 360 1.0 3.0 0.00 0.00 0.00 83 1008.5
20260906114005 63 360 2.0 3.0 0.00 0.00 0.00 83 1008.3
20260906113502 64 57 0.0 1.0 0.00 0.00 0.00 83 1008.3
20260906112502 64 58 0.0 2.0 0.00 0.00 0.00 83 1008.2
20260906112002 64 58 0.0 3.0 0.00 0.00 0.00 83 1008.1
20260906111502 64 57 1.0 3.0 0.00 0.00 0.00 84 1008.1
20260906111002 64 79 1.0 2.0 0.00 0.00 0.00 83 1008.1
20260906110601 64 80 1.0 2.0 0.00 0.00 0.00 82 1008.2
20260906105700 64 81 0.0 2.0 0.00 0.00 0.00 82 1008.1
20260906105059 64 80 1.0 2.0 0.00 0.00 0.00 82 1008.0
20260906104600 65 82 0.0 3.0 0.00 0.00 0.00 81 1007.8
20260906104059 65 82 1.0 4.0 0.00 0.00 0.00 81 1008.0
20260906103558 64 80 2.0 8.0 0.00 0.00 0.00 82 1008.0
20260906102557 64 65 3.0 4.0 0.00 0.00 0.00 77 1008.0
20260906102057 64 330 0.0 0.0 0.00 0.00 0.00 75 1008.0
20260906101556 64 331 0.0 0.0 0.00 0.00 0.00 75 1008.1
20260906101056 65 332 0.0 2.0 0.00 0.00 0.00 75 1008.1
20260906100557 65 360 0.0 2.0 0.00 0.00 0.00 74 1008.1
20260906100053 65 332 0.0 3.0 0.00 0.00 0.00 73 1008.0
20260906095554 65 332 0.0 4.0 0.00 0.00 0.00 73 1008.0
20260906095053 65 332 1.0 4.0 0.00 0.00 0.00 73 1008.0
20260906094606 65 331 0.0 3.0 0.00 0.00 0.00 73 1007.9
20260906094052 65 296 1.0 4.0 0.00 0.00 0.00 73 1007.8
20260906093552 65 329 2.0 4.0 0.00 0.00 0.00 73 1007.7
20260906092553 66 329 1.0 3.0 0.00 0.00 0.00 72 1007.5
20260906092052 66 329 1.0 3.0 0.00 0.00 0.00 72 1007.4
20260906091549 66 329 1.0 3.0 0.00 0.00 0.00 71 1007.5
20260906091048 67 329 0.0 3.0 0.00 0.00 0.00 71 1007.4
20260906090547 67 329 1.0 3.0 0.00 0.00 0.00 70 1007.3
20260906090111 67 329 1.0 3.0 0.00 0.00 0.00 70 1007.3
20260906085549 67 330 1.0 3.0 0.00 0.00 0.00 70 1007.2
20260906085046 67 317 0.0 4.0 0.00 0.00 0.00 69 1007.3
20260906084553 67 300 1.0 4.0 0.00 0.00 0.00 69 1007.1
20260906084047 67 355 2.0 4.0 0.00 0.00 0.00 69 1007.2
20260906083545 67 325 1.0 6.0 0.00 0.00 0.00 69 1007.1
20260906082545 67 360 1.0 4.0 0.00 0.00 0.00 69 1007.3
20260906082046 67 355 1.0 4.0 0.00 0.00 0.00 69 1007.5
20260906081546 67 318 2.0 4.0 0.00 0.00 0.00 68 1007.6
20260906081045 68 325 1.0 3.0 0.00 0.00 0.00 68 1007.5
20260906080544 68 325 1.0 5.0 0.00 0.00 0.00 67 1007.4
20260906080044 68 325 2.0 6.0 0.00 0.00 0.00 67 1007.6
20260906075544 68 13 2.0 6.0 0.00 0.00 0.00 67 1007.3
20260906075044 68 30 2.0 6.0 0.00 0.00 0.00 67 1007.3
20260906074551 67 46 1.0 6.0 0.00 0.00 0.00 67 1007.4
20260906074044 68 5 2.0 4.0 0.00 0.00 0.00 67 1007.3
20260906073546 68 18 1.0 5.0 0.00 0.00 0.00 67 1007.5
20260906072543 68 27 2.0 6.0 0.00 0.00 0.00 66 1007.5
20260906072042 68 355 2.0 6.0 0.00 0.00 0.00 64 1007.6
20260906071541 69 339 1.0 3.0 0.00 0.00 0.00 63 1007.6
20260906071041 69 335 1.0 4.0 0.00 0.00 0.00 62 1007.8
20260906070542 69 298 1.0 4.0 0.00 0.00 0.00 62 1008.0
20260906070042 69 293 1.0 4.0 0.00 0.00 0.00 62 1008.0
20260906065541 69 315 2.0 3.0 0.00 0.00 0.00 62 1007.9
20260906065041 69 315 1.0 2.0 0.00 0.00 0.00 62 1007.8
20260906064543 69 314 0.0 3.0 0.00 0.00 0.00 63 1007.8
20260906064040 69 314 1.0 3.0 0.00 0.00 0.00 64 1007.8
20260906063540 69 314 0.0 0.0 0.00 0.00 0.00 63 1008.1
20260906062538 70 314 0.0 1.0 0.00 0.00 0.00 62 1007.7
20260906062040 70 314 0.0 4.0 0.00 0.00 0.00 61 1007.8
20260906061547 70 314 1.0 4.0 0.00 0.00 0.00 61 1007.7
20260906061037 70 321 2.0 4.0 0.00 0.00 0.00 60 1007.7
20260906060540 70 321 2.0 4.0 0.00 0.00 0.00 60 1007.6
20260906060037 70 9 1.0 5.0 0.00 0.00 0.00 59 1007.5
20260906055538 70 327 3.0 5.0 0.00 0.00 0.00 60 1007.3
20260906055039 70 314 2.0 3.0 0.00 0.00 0.00 59 1007.5
20260906054541 70 306 1.0 3.0 0.00 0.00 0.00 59 1007.4
20260906054035 70 306 0.0 3.0 0.00 0.00 0.00 57 1007.5
20260906053533 71 306 2.0 3.0 0.00 0.00 0.00 56 1007.4
20260906052535 72 37 0.0 2.0 0.00 0.00 0.00 55 1007.5
20260906052032 72 37 0.0 5.0 0.00 0.00 0.00 55 1007.3
20260906051537 72 37 0.0 5.0 0.00 0.00 0.00 54 1007.2
20260906051033 72 65 0.0 6.0 0.00 0.00 0.00 53 1007.2
20260906050530 72 61 1.0 6.0 0.00 0.00 0.00 52 1007.1
20260906050029 72 89 1.0 7.0 0.00 0.00 0.00 51 1006.9
20260906045529 72 76 0.0 4.0 0.00 0.00 0.00 50 1006.8
20260906045031 72 76 0.0 8.0 0.00 0.00 0.00 49 1006.7
20260906044527 73 78 4.0 8.0 0.00 0.00 0.00 48 1006.8
20260906044030 73 315 0.0 3.0 0.00 0.00 0.00 49 1006.5
20260906043525 73 314 2.0 5.0 0.00 0.00 0.00 49 1006.5
20260906042524 74 343 2.0 4.0 0.00 0.00 0.00 48 1006.5
20260906042024 74 26 1.0 4.0 0.00 0.00 0.00 48 1006.5
20260906041533 74 312 1.0 3.0 0.00 0.00 0.00 47 1006.4
20260906041022 75 312 0.0 2.0 0.00 0.00 0.00 47 1006.4
20260906040520 75 311 0.0 3.0 0.00 0.00 0.00 46 1006.3
20260906040021 75 311 1.0 4.0 0.00 0.00 0.00 46 1006.3
20260906035522 75 304 2.0 6.0 0.00 0.00 0.00 45 1006.2
20260906035019 75 290 3.0 4.0 0.00 0.00 0.00 46 1006.2
20260906034518 76 355 1.0 6.0 0.00 0.00 0.00 46 1006.3
20260906034018 76 355 1.0 6.0 0.00 0.00 0.00 45 1006.3
20260906033517 76 336 2.0 8.0 0.00 0.00 0.00 45 1006.2
20260906032618 76 313 4.0 6.0 0.00 0.00 0.00 45 1006.3
20260906032017 76 355 2.0 6.0 0.00 0.00 0.00 46 1006.3
20260906031519 76 311 3.0 6.0 0.00 0.00 0.00 45 1006.2
20260906031016 77 62 1.0 6.0 0.00 0.00 0.00 45 1006.3
20260906030515 77 46 3.0 6.0 0.00 0.00 0.00 45 1006.3
20260906030013 77 9 3.0 6.0 0.00 0.00 0.00 44 1006.0
20260906025517 77 51 2.0 6.0 0.00 0.00 0.00 43 1005.9
20260906025012 78 11 2.0 6.0 0.00 0.00 0.00 43 1005.7
20260906024511 78 40 2.0 6.0 0.00 0.00 0.00 42 1005.8
20260906024011 78 22 1.0 5.0 0.00 0.00 0.00 42 1005.8
20260906023509 79 329 2.0 6.0 0.00 0.00 0.00 41 1005.9
20260906022508 79 10 1.0 12.0 0.00 0.00 0.00 40 1005.6
20260906022007 80 360 4.0 12.0 0.00 0.00 0.00 41 1005.8
20260906021506 80 61 1.0 5.0 0.00 0.00 0.00 40 1005.5
20260906021006 80 340 2.0 7.0 0.00 0.00 0.00 39 1005.2
20260906020504 81 292 3.0 9.0 0.00 0.00 0.00 39 1005.1
20260906020004 81 272 4.0 9.0 0.00 0.00 0.00 39 1005.1
20260906015502 81 283 5.0 11.0 0.00 0.00 0.00 38 1005.0
20260906015002 81 301 6.0 12.0 0.00 0.00 0.00 38 1004.8
20260906014505 81 291 5.0 12.0 0.00 0.00 0.00 38 1004.9
20260906014001 82 307 5.0 12.0 0.00 0.00 0.00 38 1004.8
20260906013501 82 285 6.0 11.0 0.00 0.00 0.00 37 1004.8
20260906012603 82 306 5.0 9.0 0.00 0.00 0.00 37 1004.9
20260906012100 82 300 6.0 10.0 0.00 0.00 0.00 37 1004.9
20260906011602 82 316 5.0 10.0 0.00 0.00 0.00 37 1004.9
20260906011059 82 266 3.0 10.0 0.00 0.00 0.00 37 1004.8
20260906010558 82 263 5.0 12.0 0.00 0.00 0.00 37 1004.9
20260906010128 82 279 5.0 12.0 0.00 0.00 0.00 37 1004.8
20260906005559 83 287 6.0 11.0 0.00 0.00 0.00 36 1004.9
20260906005055 83 281 6.0 13.0 0.00 0.00 0.00 36 1004.8
20260906004555 83 277 7.0 13.0 0.00 0.00 0.00 36 1004.8
20260906004053 84 298 8.0 14.0 0.00 0.00 0.00 36 1004.8
20260906003555 84 293 5.0 16.0 0.00 0.00 0.00 35 1004.9
20260906002551 85 288 9.0 17.0 0.00 0.00 0.00 34 1004.8
20260906002053 86 285 11.0 22.0 0.00 0.00 0.00 33 1004.8
20260906001602 87 226 9.0 22.0 0.00 0.00 0.00 31 1004.7
20260906001047 88 5 11.0 18.0 0.00 0.00 0.00 30 1004.7
20260906000547 88 314 7.0 14.0 0.00 0.00 0.00 30 1004.8
20260906000046 88 268 9.0 14.0 0.00 0.00 0.00 30 1004.7
20260905235545 89 279 4.0 10.0 0.00 0.00 0.00 30 1004.6
20260905235045 89 288 2.0 6.0 0.00 0.00 0.00 30 1004.6
20260905234546 90 276 3.0 6.0 0.00 0.00 0.00 29 1004.5
20260905234044 90 117 0.0 2.0 0.00 0.00 0.00 31 1004.5
20260905233544 90 115 0.0 4.0 0.00 0.00 0.00 31 1004.5
20260905232546 91 115 0.0 6.0 0.00 0.00 0.00 33 1004.3
20260905232043 91 115 2.0 7.0 0.00 0.00 0.00 30 1004.2
20260905231546 91 101 1.0 6.0 0.00 0.00 0.00 31 1004.2
20260905231042 92 98 0.0 4.0 0.00 0.00 0.00 29 1004.0
20260905230544 92 98 3.0 7.0 0.00 0.00 0.00 27 1003.9
20260905230048 92 110 1.0 9.0 0.00 0.00 0.00 25 1003.9
20260905225541 92 103 6.0 9.0 0.00 0.00 0.00 25 1003.9
20260905225041 93 82 7.0 11.0 0.00 0.00 0.00 25 1003.8
20260905224545 93 111 8.0 11.0 0.00 0.00 0.00 25 1003.8
20260905224040 93 90 3.0 11.0 0.00 0.00 0.00 25 1003.8
20260905223541 93 109 8.0 12.0 0.00 0.00 0.00 25 1003.8
20260905222541 93 64 9.0 14.0 0.00 0.00 0.00 26 1003.8
20260905222039 93 88 7.0 10.0 0.00 0.00 0.00 25 1003.9
20260905221550 93 123 6.0 10.0 0.00 0.00 0.00 26 1003.9
20260905221040 93 68 6.0 21.0 0.00 0.00 0.00 26 1003.9
20260905220539 93 98 8.0 21.0 0.00 0.00 0.00 26 1003.9
20260905220039 93 87 5.0 13.0 0.00 0.00 0.00 26 1004.0
20260905215538 93 103 6.0 13.0 0.00 0.00 0.00 25 1004.2
20260905215038 94 121 9.0 13.0 0.00 0.00 0.00 25 1004.2
20260905214536 94 5 6.0 11.0 0.00 0.00 0.00 24 1004.3
20260905214037 94 94 5.0 14.0 0.00 0.00 0.00 25 1004.4
20260905213536 94 92 5.0 17.0 0.00 0.00 0.00 23 1004.4
20260905212536 94 90 2.0 14.0 0.00 0.00 0.00 24 1004.5
20260905212038 94 104 7.0 14.0 0.00 0.00 0.00 23 1004.6